User: anonymous   Login
Location: Unspecified
(0.0000°N, 0.0000°E)
Time: 08:46:12
(UTC+02:00)
Language:

H-2A R/B - Orbit

View from above orbital plane
View from above orbital plane
View from above satellite
View from above satellite

Ground track
Ground track

The orbit data is extracted from the following two-line orbital elements,

1 26899U 01038B   17146.05905596 +.00002365 +00000-0 +59271-3 0  9997
2 26899 028.2596 073.7161 7127070 174.2206 204.0543 02.47958930135968
Epoch (UTC): 26 May 2017 01:25:02
Eccentricity: 0.7127070
inclination: 28.2596°
perigee height: 246 km
apogee height: 33112 km
right ascension of ascending node: 73.7161°
argument of perigee: 174.2206°
revolutions per day: 2.47958930
mean anomaly at epoch: 204.0543°
orbit number at epoch: 13596

The dashed part of the orbit path shows where the satellite is in the earth's shadow,  

DLR